|
NORAD ID: 28481 Int'l Code: 2004-046C
Perigee: 690.7 km
Apogee: 891.4 km
Inclination: 98.0 °
Period: 100.5 minutes
Semi major axis: 7162 km
Launch date: November 18, 2004
Source: People's Republic of China (PRC)
Note: This is SATELLITE DEBRIS
Two Line Element Set (TLE):
1 28481U 04046C 13136.72197628 .00002907 00000-0 97874-3 0 4208
2 28481 098.0167 326.4015 0140111 202.0787 289.6891 14.32347233442994
Source:
NASA's NSSDC Master Catalog entry for CZ-2C DEB
|